STARLINK-30252 (57607 NORAD) Tracking and Keplerian Element Data

This shows tracking and keplerian element data for the satellite.

Feedback or suggestion? Click here.




ElementValue
Catalog57607
NameSTARLINK-30252
Epoch Orbit369
Epoch Day238.91667824
Epoch Year2023
RAAN79.2526
Inclination43.0008
Eccentricity0.0001835
Argument of Perigee273.5183
Mean Anonmoly4.4246
Mean Motion15.74866548
Decay Rate-0.00750712
L11 57607U 23119F 23238.91667824 -.00750712 00000+0 -53744-2 0 9990
L22 57607 43.0008 79.2526 0001835 273.5183 4.4246 15.74866548 3691



Live tracking and technical data element details for STARLINK-30252 (NORAD 57607). STARLINK-30252 can be tracked NOW for your location showing map with azimuth and elevation plus other details from your city location.







IsCatalogInMostPopularTable: catalog: 57607, numindb: 5
Update: records affected: 1



GetName: 57607 STARLINK-30252

Hit Count: updated at: Tue, 26 Sep 2023 13:27:48 GMT